Location: Boursonne
(49.2024°N, 3.0468°E)
Time: 08:52:13
(UTC+00:00)

Cosmos 1844 Rocket - Pass Details

Date: 03 March 2021
Orbit: 826 x 843 km, 71.0° (Epoch: 13 April)

Event Time Altitude Azimuth Distance (km) Brightness Sun altitude
Rises 20:05:05 0° 323° (NW) 3,375 6.7 -25.1°
Reaches altitude 10° 20:07:50 10° 313° (NW) 2,437 6.0 -25.5°
Maximum altitude 20:12:28 28° 256° (WSW) 1,518 4.5 -26.2°
Drops below altitude 10° 20:17:06 10° 199° (SSW) 2,424 5.0 -26.9°
Enters shadow 20:17:46 - 196° (SSW) 2,641 5.2 -27.0°
